Time,TemperatureF,DewpointF,PressureIn,WindDirection,WindDirectionDegrees,WindSpeedMPH,WindSpeedGustMPH,Humidity,HourlyPrecipIn,Conditions,Clouds,dailyrainin,SolarRadiationWatts/m^2,SoftwareType,DateUTC
2013-01-08 00:02:00,46.0,14.0,-100.00,North,353,11.0,17.0,27,0.00,,,0.00,0.000000,,2013-01-08 08:02:00,
2013-01-08 00:12:00,46.0,14.0,-100.00,North,353,11.0,17.0,27,0.00,,,0.00,0.000000,,2013-01-08 08:12:00,
2013-01-08 00:22:00,46.0,14.0,-100.00,North,353,11.0,17.0,27,0.00,,,0.00,0.000000,,2013-01-08 08:22:00,
2013-01-08 00:53:00,47.0,17.0,-100.00,North,357,13.0,19.0,30,0.00,,,0.00,0.000000,,2013-01-08 08:53:00,
2013-01-08 01:02:00,47.0,17.0,-100.00,North,357,13.0,19.0,30,0.00,,,0.00,0.000000,,2013-01-08 09:02:00,
2013-01-08 01:12:00,47.0,17.0,-100.00,North,357,13.0,19.0,30,0.00,,,0.00,0.000000,,2013-01-08 09:12:00,
2013-01-08 01:22:00,47.0,17.0,-100.00,North,357,13.0,19.0,30,0.00,,,0.00,0.000000,,2013-01-08 09:22:00,
2013-01-08 01:52:00,48.0,20.0,-100.00,North,350,11.0,16.0,32,0.00,,,0.00,0.000000,,2013-01-08 09:52:00,
2013-01-08 02:02:00,48.0,20.0,-100.00,North,350,11.0,16.0,32,0.00,,,0.00,0.000000,,2013-01-08 10:02:00,
2013-01-08 02:12:00,48.0,20.0,-100.00,North,350,11.0,16.0,32,0.00,,,0.00,0.000000,,2013-01-08 10:12:00,
2013-01-08 02:22:00,48.0,20.0,-100.00,North,350,11.0,16.0,32,0.00,,,0.00,0.000000,,2013-01-08 10:22:00,
2013-01-08 02:52:00,46.0,22.0,-100.00,North,357,14.0,19.0,38,0.00,,,0.00,0.000000,,2013-01-08 10:52:00,
2013-01-08 03:02:00,46.0,22.0,-100.00,North,357,14.0,19.0,38,0.00,,,0.00,0.000000,,2013-01-08 11:02:00,
2013-01-08 03:12:00,46.0,22.0,-100.00,North,357,14.0,19.0,38,0.00,,,0.00,0.000000,,2013-01-08 11:12:00,
2013-01-08 03:22:00,46.0,22.0,-100.00,North,357,14.0,19.0,38,0.00,,,0.00,0.000000,,2013-01-08 11:22:00,
2013-01-08 03:53:00,44.0,24.0,-100.00,NNW,329,11.0,20.0,45,0.00,,,0.00,0.000000,,2013-01-08 11:53:00,
2013-01-08 04:02:00,44.0,24.0,-100.00,NNW,329,11.0,20.0,45,0.00,,,0.00,0.000000,,2013-01-08 12:02:00,
2013-01-08 04:12:00,44.0,24.0,-100.00,NNW,329,11.0,20.0,45,0.00,,,0.00,0.000000,,2013-01-08 12:12:00,
2013-01-08 04:22:00,44.0,24.0,-100.00,NNW,329,11.0,20.0,45,0.00,,,0.00,0.000000,,2013-01-08 12:22:00,
2013-01-08 04:53:00,47.0,26.0,-100.00,NNW,330,11.0,18.0,44,0.00,,,0.00,0.000000,,2013-01-08 12:53:00,
2013-01-08 05:03:00,47.0,26.0,-100.00,NNW,330,11.0,18.0,44,0.00,,,0.00,0.000000,,2013-01-08 13:03:00,
2013-01-08 05:12:00,47.0,26.0,-100.00,NNW,330,11.0,18.0,44,0.00,,,0.00,0.000000,,2013-01-08 13:12:00,
2013-01-08 05:22:00,47.0,26.0,-100.00,NNW,330,11.0,18.0,44,0.00,,,0.00,0.000000,,2013-01-08 13:22:00,
2013-01-08 05:53:00,46.0,26.0,-100.00,NNW,335,11.0,14.0,46,0.00,,,0.00,0.000000,,2013-01-08 13:53:00,
2013-01-08 06:02:00,46.0,26.0,-100.00,NNW,335,11.0,14.0,46,0.00,,,0.00,0.000000,,2013-01-08 14:02:00,
2013-01-08 06:12:00,46.0,26.0,-100.00,NNW,335,11.0,14.0,46,0.00,,,0.00,0.000000,,2013-01-08 14:12:00,
2013-01-08 06:22:00,46.0,26.0,-100.00,NNW,335,11.0,14.0,46,0.00,,,0.00,0.000000,,2013-01-08 14:22:00,
2013-01-08 06:53:00,44.0,26.0,-100.00,NNW,338,10.0,17.0,49,0.00,,,0.00,0.000000,,2013-01-08 14:53:00,
2013-01-08 07:02:00,44.0,26.0,-100.00,NNW,338,10.0,17.0,49,0.00,,,0.00,0.000000,,2013-01-08 15:02:00,
2013-01-08 07:12:00,44.0,26.0,-100.00,NNW,338,10.0,17.0,49,0.00,,,0.00,0.000000,,2013-01-08 15:12:00,
2013-01-08 07:22:00,44.0,26.0,-100.00,NNW,338,10.0,17.0,49,0.00,,,0.00,0.000000,,2013-01-08 15:22:00,
2013-01-08 07:53:00,46.0,28.0,-100.00,NNW,335,9.0,14.0,49,0.00,,,0.00,5.000000,,2013-01-08 15:53:00,
2013-01-08 08:03:00,46.0,28.0,-100.00,NNW,335,9.0,14.0,49,0.00,,,0.00,5.000000,,2013-01-08 16:03:00,
2013-01-08 08:12:00,46.0,28.0,-100.00,NNW,335,9.0,14.0,49,0.00,,,0.00,5.000000,,2013-01-08 16:12:00,
2013-01-08 08:22:00,46.0,28.0,-100.00,NNW,335,9.0,14.0,49,0.00,,,0.00,5.000000,,2013-01-08 16:22:00,
2013-01-08 08:53:00,50.0,26.0,-100.00,North,2,3.0,12.0,39,0.00,,,0.00,138.000000,,2013-01-08 16:53:00,
2013-01-08 09:03:00,50.0,26.0,-100.00,North,2,3.0,12.0,39,0.00,,,0.00,138.000000,,2013-01-08 17:03:00,
2013-01-08 09:12:00,50.0,26.0,-100.00,North,2,3.0,12.0,39,0.00,,,0.00,138.000000,,2013-01-08 17:12:00,
2013-01-08 09:22:00,50.0,26.0,-100.00,North,2,3.0,12.0,39,0.00,,,0.00,138.000000,,2013-01-08 17:22:00,
2013-01-08 09:53:00,54.0,30.0,-100.00,NW,316,1.0,7.0,39,0.00,,,0.00,358.000000,,2013-01-08 17:53:00,
2013-01-08 10:03:00,54.0,30.0,-100.00,NW,316,1.0,7.0,39,0.00,,,0.00,358.000000,,2013-01-08 18:03:00,
2013-01-08 10:12:00,54.0,30.0,-100.00,NW,316,1.0,7.0,39,0.00,,,0.00,358.000000,,2013-01-08 18:12:00,
2013-01-08 10:22:00,54.0,30.0,-100.00,NW,316,1.0,7.0,39,0.00,,,0.00,358.000000,,2013-01-08 18:22:00,
2013-01-08 10:53:00,58.0,28.0,-100.00,NE,43,0.0,4.0,31,0.00,,,0.00,514.000000,,2013-01-08 18:53:00,
2013-01-08 11:03:00,58.0,28.0,-100.00,NE,43,0.0,4.0,31,0.00,,,0.00,514.000000,,2013-01-08 19:03:00,
2013-01-08 11:12:00,58.0,28.0,-100.00,NE,43,0.0,4.0,31,0.00,,,0.00,514.000000,,2013-01-08 19:12:00,
2013-01-08 11:22:00,58.0,28.0,-100.00,NE,43,0.0,4.0,31,0.00,,,0.00,514.000000,,2013-01-08 19:22:00,
2013-01-08 11:53:00,62.0,28.0,-100.00,NNE,21,0.0,9.0,27,0.00,,,0.00,595.000000,,2013-01-08 19:53:00,
2013-01-08 12:02:00,62.0,28.0,-100.00,NNE,21,0.0,9.0,27,0.00,,,0.00,595.000000,,2013-01-08 20:02:00,
2013-01-08 12:12:00,62.0,28.0,-100.00,NNE,21,0.0,9.0,27,0.00,,,0.00,595.000000,,2013-01-08 20:12:00,
2013-01-08 12:22:00,62.0,28.0,-100.00,NNE,21,0.0,9.0,27,0.00,,,0.00,595.000000,,2013-01-08 20:22:00,
2013-01-08 12:53:00,59.0,19.0,-100.00,South,180,0.0,0.0,21,-99.99,,,-99.99,0.000000,,2013-01-08 20:53:00,
2013-01-08 13:02:00,59.0,19.0,-100.00,South,180,0.0,0.0,21,-99.99,,,-99.99,0.000000,,2013-01-08 21:02:00,
2013-01-08 13:12:00,59.0,19.0,-100.00,South,180,0.0,0.0,21,-99.99,,,-99.99,0.000000,,2013-01-08 21:12:00,
2013-01-08 13:22:00,59.0,19.0,-100.00,South,180,0.0,0.0,21,-99.99,,,-99.99,0.000000,,2013-01-08 21:22:00,
2013-01-08 13:53:00,60.0,18.0,-100.00,SE,126,2.0,51.0,19,0.00,,,-99.99,604.000000,,2013-01-08 21:53:00,
2013-01-08 14:02:00,60.0,18.0,-100.00,SE,126,2.0,51.0,19,0.00,,,-99.99,604.000000,,2013-01-08 22:02:00,
2013-01-08 14:12:00,60.0,18.0,-100.00,SE,126,2.0,51.0,19,0.00,,,-99.99,604.000000,,2013-01-08 22:12:00,
2013-01-08 14:22:00,60.0,18.0,-100.00,SE,126,2.0,51.0,19,0.00,,,-99.99,604.000000,,2013-01-08 22:22:00,
2013-01-08 14:53:00,60.0,19.0,-100.00,NNE,12,0.0,7.0,20,0.00,,,-99.99,537.000000,,2013-01-08 22:53:00,
2013-01-08 15:02:00,60.0,19.0,-100.00,NNE,12,0.0,7.0,20,0.00,,,-99.99,537.000000,,2013-01-08 23:02:00,
2013-01-08 15:12:00,60.0,19.0,-100.00,NNE,12,0.0,7.0,20,0.00,,,-99.99,537.000000,,2013-01-08 23:12:00,
2013-01-08 15:22:00,60.0,19.0,-100.00,NNE,12,0.0,7.0,20,0.00,,,-99.99,537.000000,,2013-01-08 23:22:00,
2013-01-08 15:53:00,60.0,16.0,-100.00,SSE,165,3.0,8.0,18,0.00,,,-99.99,380.000000,,2013-01-08 23:53:00,
2013-01-08 16:02:00,60.0,16.0,-100.00,SSE,165,3.0,8.0,18,0.00,,,-99.99,380.000000,,2013-01-09 00:02:00,
2013-01-08 16:53:00,58.0,18.0,-100.00,SSE,153,4.0,9.0,21,0.00,,,-99.99,155.000000,,2013-01-09 00:53:00,
2013-01-08 17:02:00,58.0,18.0,-100.00,SSE,153,4.0,9.0,21,0.00,,,-99.99,155.000000,,2013-01-09 01:02:00,
2013-01-08 17:12:00,58.0,18.0,-100.00,SSE,153,4.0,9.0,21,0.00,,,-99.99,155.000000,,2013-01-09 01:12:00,
2013-01-08 17:22:00,58.0,18.0,-100.00,SSE,153,4.0,9.0,21,0.00,,,-99.99,155.000000,,2013-01-09 01:22:00,
2013-01-08 17:52:00,54.0,20.0,-100.00,WNW,282,0.0,6.0,26,0.00,,,-99.99,11.000000,,2013-01-09 01:52:00,
2013-01-08 18:02:00,54.0,20.0,-100.00,WNW,282,0.0,6.0,26,0.00,,,-99.99,11.000000,,2013-01-09 02:02:00,
2013-01-08 18:12:00,54.0,20.0,-100.00,WNW,282,0.0,6.0,26,0.00,,,-99.99,11.000000,,2013-01-09 02:12:00,
2013-01-08 18:22:00,54.0,20.0,-100.00,WNW,282,0.0,6.0,26,0.00,,,-99.99,11.000000,,2013-01-09 02:22:00,
2013-01-08 18:53:00,52.0,21.0,-100.00,NE,40,0.0,6.0,29,0.00,,,-99.99,0.000000,,2013-01-09 02:53:00,
2013-01-08 19:02:00,52.0,21.0,-100.00,NE,40,0.0,6.0,29,0.00,,,-99.99,0.000000,,2013-01-09 03:02:00,
2013-01-08 19:12:00,52.0,21.0,-100.00,NE,40,0.0,6.0,29,0.00,,,-99.99,0.000000,,2013-01-09 03:12:00,
2013-01-08 19:22:00,52.0,21.0,-100.00,NE,40,0.0,6.0,29,0.00,,,-99.99,0.000000,,2013-01-09 03:22:00,
2013-01-08 19:53:00,51.0,21.0,-100.00,ENE,57,4.0,7.0,31,0.00,,,-99.99,0.000000,,2013-01-09 03:53:00,
2013-01-08 20:02:00,51.0,21.0,-100.00,ENE,57,4.0,7.0,31,0.00,,,-99.99,0.000000,,2013-01-09 04:02:00,
2013-01-08 20:12:00,51.0,21.0,-100.00,ENE,57,4.0,7.0,31,0.00,,,-99.99,0.000000,,2013-01-09 04:12:00,
2013-01-08 20:22:00,51.0,21.0,-100.00,ENE,57,4.0,7.0,31,0.00,,,-99.99,0.000000,,2013-01-09 04:22:00,
2013-01-08 20:52:00,53.0,21.0,-100.00,NNE,26,7.0,10.0,28,0.00,,,-99.99,0.000000,,2013-01-09 04:52:00,
2013-01-08 21:03:00,53.0,21.0,-100.00,NNE,26,7.0,10.0,28,0.00,,,-99.99,0.000000,,2013-01-09 05:03:00,
2013-01-08 21:12:00,53.0,21.0,-100.00,NNE,26,7.0,10.0,28,0.00,,,-99.99,0.000000,,2013-01-09 05:12:00,
2013-01-08 21:22:00,53.0,21.0,-100.00,NNE,26,7.0,10.0,28,0.00,,,-99.99,0.000000,,2013-01-09 05:22:00,
2013-01-08 21:52:00,53.0,22.0,-100.00,NNE,20,6.0,11.0,30,0.00,,,-99.99,0.000000,,2013-01-09 05:52:00,
2013-01-08 22:02:00,53.0,22.0,-100.00,NNE,20,6.0,11.0,30,0.00,,,-99.99,0.000000,,2013-01-09 06:02:00,
2013-01-08 22:12:00,53.0,22.0,-100.00,NNE,20,6.0,11.0,30,0.00,,,-99.99,0.000000,,2013-01-09 06:12:00,
2013-01-08 22:22:00,53.0,22.0,-100.00,NNE,20,6.0,11.0,30,0.00,,,-99.99,0.000000,,2013-01-09 06:22:00,
2013-01-08 22:52:00,50.0,21.0,-100.00,NE,41,2.0,7.0,32,0.00,,,-99.99,0.000000,,2013-01-09 06:52:00,
2013-01-08 23:02:00,50.0,21.0,-100.00,NE,41,2.0,7.0,32,0.00,,,-99.99,0.000000,,2013-01-09 07:02:00,
2013-01-08 23:12:00,50.0,21.0,-100.00,NE,41,2.0,7.0,32,0.00,,,-99.99,0.000000,,2013-01-09 07:12:00,
2013-01-08 23:22:00,50.0,21.0,-100.00,NE,41,2.0,7.0,32,0.00,,,-99.99,0.000000,,2013-01-09 07:22:00,
2013-01-08 23:52:00,50.0,23.0,-100.00,East,90,4.0,5.0,35,0.00,,,-99.99,0.000000,,2013-01-09 07:52:00,